EW3711 Weather Reports


time (UTC)temp
F
wind
direction
speed
knots
gust
knots
rain 1hr
in
rain 24hr
in
rain mn
in
humidity
%
barometer
mb
20260504035423 47 242 12.2 25.2 0.00 0.00 0.00 74 996.2
20260504034919 48 252 12.2 21.7 0.00 0.00 0.00 73 996.2
20260504034417 48 274 13.0 23.5 0.00 0.00 0.00 71 995.8
20260504033914 49 299 13.0 23.5 0.00 0.00 0.00 71 995.8
20260504033411 49 167 12.2 23.5 0.00 0.00 0.00 71 995.8
20260504032908 50 214 13.0 25.2 0.00 0.00 0.00 70 995.8
20260504032405 50 242 14.8 26.9 0.00 0.00 0.00 70 995.8
20260504031902 51 221 15.6 29.5 0.00 0.00 0.00 69 995.8
20260504031359 51 238 14.8 29.5 0.00 0.00 0.00 69 995.8
20260504030855 52 278 13.9 24.3 0.00 0.00 0.00 68 995.4
20260504030353 53 238 13.9 25.2 0.00 0.00 0.00 66 995.1
20260504025849 54 209 13.0 25.2 0.00 0.00 0.00 63 994.7
20260504025346 55 294 12.2 21.7 0.00 0.00 0.00 62 994.7
20260504024842 55 234 9.6 20.0 0.00 0.00 0.00 66 994.7
20260504024339 55 211 7.0 18.2 0.00 0.00 0.00 72 994.7
20260504023836 55 242 6.1 9.6 0.00 0.00 0.00 74 994.1
20260504023333 56 250 5.2 9.6 0.00 0.00 0.00 73 994.4
20260504022828 57 212 4.3 8.7 0.00 0.00 0.00 70 994.1
20260504022326 57 235 2.6 7.8 0.00 0.00 0.00 69 994.1
20260504021822 58 214 1.7 5.2 0.00 0.00 0.00 66 993.6
20260504021320 59 199 3.5 9.6 0.00 0.00 0.00 62 993.6
20260504020816 60 203 5.2 12.2 0.00 0.00 0.00 58 993.6
20260504020313 60 223 5.2 13.9 0.00 0.00 0.00 59 993.6
20260504015809 59 240 5.2 13.9 0.00 0.00 0.00 59 994.1
20260504015305 59 229 6.1 11.3 0.00 0.00 0.00 60 994.1
20260504014801 59 214 7.0 13.0 0.00 0.00 0.00 60 994.1
20260504014258 61 212 7.8 13.9 0.00 0.00 0.00 55 994.1
20260504013756 61 233 3.5 13.9 0.00 0.00 0.00 52 994.4
20260504013253 61 238 0.0 0.0 0.00 0.00 0.00 52 994.1
20260504012749 60 195 0.0 0.0 0.00 0.00 0.00 55 994.4
20260504012247 60 188 0.0 0.0 0.00 0.00 0.00 54 994.4
20260504011744 61 167 0.0 0.0 0.00 0.00 0.00 52 994.1
20260504011241 61 167 0.0 0.0 0.00 0.00 0.00 51 994.1
20260504010737 62 202 0.0 0.0 0.00 0.00 0.00 52 994.1
20260504010232 61 190 0.0 0.0 0.00 0.00 0.00 52 994.4
20260504005730 61 206 0.9 3.5 0.00 0.00 0.00 52 994.4
20260504005227 62 206 0.9 4.3 0.00 0.00 0.00 52 994.7
20260504004724 62 204 0.0 4.3 0.00 0.00 0.00 51 994.7
20260504004221 62 206 0.0 0.0 0.00 0.00 0.00 51 994.7
20260504003718 62 204 0.0 0.0 0.00 0.00 0.00 52 994.7
20260504003215 62 188 0.0 0.0 0.00 0.00 0.00 51 994.7
20260504002712 62 203 0.0 0.0 0.00 0.00 0.00 51 994.7
20260504002209 62 203 0.0 0.0 0.00 0.00 0.00 52 995.1
20260504001707 62 200 0.9 5.2 0.00 0.00 0.00 51 995.4
20260504001203 62 221 2.6 5.2 0.00 0.00 0.00 50 995.4
20260504000659 63 230 3.5 7.0 0.00 0.00 0.00 50 995.4
20260504000157 63 240 4.3 8.7 0.00 0.00 0.00 50 995.8
20260503235655 63 227 4.3 8.7 0.00 0.00 0.00 50 995.8
20260503235151 63 252 3.5 8.7 0.00 0.00 0.00 50 995.8
20260503234649 63 225 4.3 9.6 0.00 0.00 0.00 50 995.8
20260503234147 63 246 6.1 15.6 0.00 0.00 0.00 50 995.8
20260503233644 63 262 7.8 15.6 0.00 0.00 0.00 50 996.2
20260503233139 63 283 8.7 15.6 0.00 0.00 0.00 50 996.5
20260503232637 64 262 8.7 18.2 0.00 0.00 0.00 48 996.5
20260503232134 65 236 10.4 20.9 0.00 0.00 0.00 45 996.2
20260503231632 67 284 11.3 20.9 0.00 0.00 0.00 39 996.2
20260503231128 70 211 9.6 16.5 0.00 0.00 0.00 31 996.2
20260503230625 70 180 10.4 17.4 0.00 0.00 0.00 29 996.2
20260503230122 70 201 12.2 24.3 0.00 0.00 0.00 28 996.2
20260503225620 71 122 13.0 24.3 0.00 0.00 0.00 28 996.2
20260503225119 71 210 13.9 24.3 0.00 0.00 0.00 28 996.2
20260503224617 71 210 13.9 25.2 0.00 0.00 0.00 27 996.2
20260503224115 72 201 13.9 25.2 0.00 0.00 0.00 26 996.5
20260503223612 72 217 14.8 24.3 0.00 0.00 0.00 28 996.5
20260503223108 72 311 13.9 26.1 0.00 0.00 0.00 26 996.5
20260503222606 71 227 14.8 26.9 0.00 0.00 0.00 26 996.5
20260503222104 71 214 13.9 26.9 0.00 0.00 0.00 27 996.5
20260503221602 71 204 15.6 26.9 0.00 0.00 0.00 27 996.9
20260503221059 72 208 14.8 27.8 0.00 0.00 0.00 26 996.9
20260503220555 72 220 13.9 27.8 0.00 0.00 0.00 26 996.9
20260503220052 72 247 13.9 26.9 0.00 0.00 0.00 25 997.2
20260503215549 72 226 13.9 26.9 0.00 0.00 0.00 25 997.2
20260503215046 72 217 13.9 26.1 0.00 0.00 0.00 25 997.2
20260503214544 72 204 13.9 26.1 0.00 0.00 0.00 25 997.2
20260503214040 72 202 13.0 23.5 0.00 0.00 0.00 25 997.2
20260503213539 72 208 13.0 23.5 0.00 0.00 0.00 25 997.6
20260503213035 71 203 13.9 26.9 0.00 0.00 0.00 25 997.6
20260503212533 71 179 14.8 26.9 0.00 0.00 0.00 26 997.9
20260503212030 71 210 16.5 26.9 0.00 0.00 0.00 26 997.9
20260503211527 71 124 16.5 26.9 0.00 0.00 0.00 25 997.9
20260503211022 71 161 16.5 26.9 0.00 0.00 0.00 25 998.3
20260503210520 71 207 15.6 26.9 0.00 0.00 0.00 26 998.3
20260503210015 72 186 13.9 25.2 0.00 0.00 0.00 25 998.3
20260503205512 71 198 12.2 24.3 0.00 0.00 0.00 25 998.3
20260503205009 70 41 12.2 26.1 0.00 0.00 0.00 25 998.7
20260503204506 69 206 13.0 26.1 0.00 0.00 0.00 27 999.0
20260503204002 69 217 13.0 23.5 0.00 0.00 0.00 27 999.0
20260503203500 69 203 12.2 20.9 0.00 0.00 0.00 27 999.4
20260503202956 69 218 10.4 20.9 0.00 0.00 0.00 28 999.4
20260503202454 69 209 11.3 21.7 0.00 0.00 0.00 30 999.7
20260503201953 69 136 10.4 21.7 0.00 0.00 0.00 29 999.7
20260503201450 69 204 9.6 20.0 0.00 0.00 0.00 29 999.7
20260503200947 69 219 12.2 20.9 0.00 0.00 0.00 29 1000.0
20260503200443 69 184 13.0 21.7 0.00 0.00 0.00 29 1000.0
20260503195940 69 192 13.9 24.3 0.00 0.00 0.00 28 1000.0
20260503195438 70 158 15.6 30.4 0.00 0.00 0.00 27 1000.5
20260503194934 70 205 14.8 30.4 0.00 0.00 0.00 27 1000.5
20260503194431 71 212 14.8 26.9 0.00 0.00 0.00 26 1000.5
20260503193926 70 199 15.6 26.9 0.00 0.00 0.00 28 1000.5
20260503193422 70 203 13.9 26.9 0.00 0.00 0.00 28 1000.5
20260503192917 69 173 13.0 20.0 0.00 0.00 0.00 32 1001.1
20260503192414 68 210 13.0 20.9 0.00 0.00 0.00 33 1001.5
20260503191910 68 173 13.0 20.9 0.00 0.00 0.00 32 1001.5
20260503191408 68 179 13.0 20.9 0.00 0.00 0.00 33 1001.8
20260503190903 68 172 13.0 22.6 0.00 0.00 0.00 34 1001.8
20260503190401 67 195 13.0 22.6 0.00 0.00 0.00 34 1002.2
20260503185858 67 203 13.9 25.2 0.00 0.00 0.00 35 1002.2
20260503185354 67 183 14.8 25.2 0.00 0.00 0.00 35 1002.2
20260503184854 67 172 14.8 27.8 0.00 0.00 0.00 35 1002.5
20260503184350 67 195 13.9 27.8 0.00 0.00 0.00 33 1002.5
20260503183846 67 188 13.0 26.9 0.00 0.00 0.00 35 1002.9
20260503183344 67 183 13.0 25.2 0.00 0.00 0.00 34 1002.9
20260503182841 66 195 13.9 25.2 0.00 0.00 0.00 35 1003.3
20260503182340 66 171 13.9 27.8 0.00 0.00 0.00 35 1003.3
20260503181837 66 199 14.8 27.8 0.00 0.00 0.00 36 1003.6
20260503181334 65 235 13.9 23.5 0.00 0.00 0.00 37 1003.6
20260503180830 66 160 13.0 23.5 0.00 0.00 0.00 37 1003.6
20260503180328 65 175 13.0 22.6 0.00 0.00 0.00 37 1004.0
20260503175824 65 159 13.9 22.6 0.00 0.00 0.00 36 1004.0
20260503175323 65 184 13.0 23.5 0.00 0.00 0.00 38 1004.3
20260503174817 65 144 12.2 23.5 0.00 0.00 0.00 38 1004.3
20260503174316 64 174 11.3 20.9 0.00 0.00 0.00 38 1004.6
20260503173811 64 342 10.4 19.1 0.00 0.00 0.00 38 1005.1
20260503173308 64 177 9.6 19.1 0.00 0.00 0.00 39 1005.1
20260503172804 63 176 10.4 20.9 0.00 0.00 0.00 39 1005.4
20260503172304 63 244 11.3 20.9 0.00 0.00 0.00 40 1005.4
20260503171758 63 179 11.3 19.1 0.00 0.00 0.00 39 1005.7
20260503171255 62 166 12.2 19.1 0.00 0.00 0.00 39 1005.7
20260503170752 62 243 11.3 20.0 0.00 0.00 0.00 42 1005.7
20260503170249 62 207 10.4 20.0 0.00 0.00 0.00 40 1005.7
20260503160211 60 210 7.0 15.6 0.00 0.00 0.00 42 1007.2
20260503150641 56 212 6.1 13.9 0.00 0.00 0.00 48 1007.9
20260503150137 56 258 5.2 13.9 0.00 0.00 0.00 46 1007.9
20260503131031 42 229 4.3 9.6 0.00 0.00 0.00 75 1009.3
20260503130528 41 196 2.6 7.0 0.00 0.00 0.00 76 1009.3
20260503110419 31 202 0.0 1.7 0.00 0.00 0.00 85 1009.7
20260503090304 35 193 0.0 0.0 0.00 0.00 0.00 75 1010.0
20260503081237 34 210 0.0 0.0 0.00 0.00 0.00 73 1010.0
20260503080732 35 229 0.0 0.0 0.00 0.00 0.00 71 1010.0
20260503080229 35 264 0.0 0.0 0.00 0.00 0.00 69 1010.0
20260503072707 34 252 0.0 0.0 0.00 0.00 0.00 73 1010.3
20260503072203 34 255 0.0 0.0 0.00 0.00 0.00 73 1010.3
20260503071700 34 233 0.0 0.0 0.00 0.00 0.00 73 1010.3
20260503071157 35 259 0.0 0.0 0.00 0.00 0.00 72 1010.3
20260503070653 34 272 0.0 0.0 0.00 0.00 0.00 74 1010.3
20260503070152 34 267 0.0 0.0 0.00 0.00 0.00 74 1010.3
20260503060116 40 279 1.7 6.1 0.00 0.00 0.00 65 1010.3
20260503055108 40 277 1.7 5.2 0.00 0.00 0.00 66 1010.3
20260503054603 39 276 1.7 5.2 0.00 0.00 0.00 67 1010.3
20260503054100 39 288 2.6 5.2 0.00 0.00 0.00 68 1010.3
20260503053558 40 239 2.6 6.1 0.00 0.00 0.00 67 1010.3
20260503053056 41 242 3.5 7.0 0.00 0.00 0.00 67 1010.3
20260503052552 40 279 3.5 7.0 0.00 0.00 0.00 68 1010.3
20260503052049 40 297 2.6 7.0 0.00 0.00 0.00 70 1010.3
20260503051544 39 300 0.9 4.3 0.00 0.00 0.00 75 1010.3
20260503051043 38 283 0.0 4.3 0.00 0.00 0.00 78 1010.3
20260503050538 38 254 0.0 0.0 0.00 0.00 0.00 79 1010.3
20260503050036 38 274 0.0 0.0 0.00 0.00 0.00 79 1010.3
20260503045532 39 261 0.0 0.0 0.00 0.00 0.00 79 1010.3
20260503045030 39 269 0.0 0.0 0.00 0.00 0.00 78 1010.3
20260503044526 39 248 0.0 0.0 0.00 0.00 0.00 77 1010.3
20260503044024 40 255 0.0 0.0 0.00 0.00 0.00 75 1010.3
20260503043520 41 263 0.0 0.0 0.00 0.00 0.00 73 1010.3
20260503043017 42 255 0.9 5.2 0.00 0.00 0.00 72 1010.3
20260503042514 43 257 2.6 5.2 0.00 0.00 0.00 71 1010.3
20260503042010 44 272 3.5 5.2 0.00 0.00 0.00 71 1010.3
20260503041507 44 269 2.6 5.2 0.00 0.00 0.00 70 1010.3
20260503041005 45 291 1.7 5.2 0.00 0.00 0.00 68 1010.3
20260503040502 46 278 2.6 7.8 0.00 0.00 0.00 65 1010.3
20260503035958 47 295 4.3 7.8 0.00 0.00 0.00 62 1010.0